Simultaneous Nadir Overpasses (SNOs) Predictions

Prediction of SNOs near US between AQUA and NPP Satellite Orbit:

Table of predicted SNOs near US for the next 10.0 days since TLE Epoch: 11/22/2014
Index Date (AQUA) Time (AQUA) AQUA Lat,Lon Date (NPP) Time (NPP) NPP Lat,Lon Distance(km) Time Diff (sec)
1 11/24/2014 06:56:32 20.05, -77.21 11/24/2014 06:52:53 19.94, -76.76 48.21 219
2 11/24/2014 08:31:19 34.85, -98.17 11/24/2014 08:30:08 34.85, -98.17 0.39 71
3 11/24/2014 10:05:59 49.94,-117.74 11/24/2014 10:07:16 50.02,-118.08 26.34 77
4 11/26/2014 21:04:07 49.95,-121.95 11/26/2014 20:57:31 50.04,-121.53 31.34 396
5 11/29/2014 18:15:38 44.43, -78.08 11/29/2014 18:17:11 44.18, -79.51 117.24 93
6 11/29/2014 19:52:01 35.46, -99.95 11/29/2014 19:56:04 35.07,-101.87 179.18 243




NCC Satellite Simultaneous Nadir Overpasses (SNOs) Prediction Service
